KC5ZJO-1 Weather Reports


Display with metric or nautical units.
time (UTC)temp
F
wind
direction
speed
MPH
gust
MPH
rain 1hr
in
rain 24hr
in
rain mn
in
humidity
%
barometer
mb
20191213073004 44 156 0.0 11.0 0.00 0.15 0.00 77 1021.1
20191213072505 44 120 3.0 11.0 0.00 0.15 0.00 77 1021.1
20191213072004 44 126 1.0 8.0 0.00 0.15 0.00 76 1021.1
20191213071505 44 61 0.0 7.0 0.00 0.15 0.00 76 1021.1
20191213071026 44 124 1.0 10.0 0.00 0.15 0.00 76 1021.4
20191213070504 44 122 0.0 10.0 0.00 0.15 0.00 76 1021.1
20191213070005 45 124 2.0 10.0 0.00 0.15 0.00 76 1021.1
20191213065505 45 138 2.0 10.0 0.00 0.15 0.00 75 1021.1
20191213065004 45 144 1.0 10.0 0.00 0.15 0.00 75 1021.3
20191213064505 45 122 2.0 9.0 0.00 0.15 0.00 74 1021.5
20191213064004 45 122 4.0 15.0 0.00 0.15 0.00 74 1021.6
20191213063505 45 121 6.0 15.0 0.00 0.15 0.00 74 1021.7
20191213063005 45 126 3.0 10.0 0.00 0.15 0.00 73 1021.6
20191213062504 45 181 0.0 11.0 0.00 0.15 0.00 73 1021.5
20191213062005 45 138 3.0 11.0 0.00 0.15 0.00 72 1021.7
20191213061504 45 180 0.0 8.0 0.00 0.15 0.00 71 1021.8
20191213061005 45 180 0.0 9.0 0.00 0.15 0.00 71 1021.8
20191213060505 45 139 4.0 9.0 0.00 0.15 0.00 72 1021.8
20191213060004 45 141 4.0 9.0 0.00 0.15 0.00 72 1021.8
20191213055505 45 137 6.0 10.0 0.00 0.73 0.00 71 1021.9
20191213055004 45 149 4.0 10.0 0.00 0.73 0.00 71 1021.9
20191213054505 45 138 6.0 14.0 0.00 0.73 0.00 71 1022.0
20191213054004 45 149 3.0 14.0 0.00 0.73 0.00 70 1022.1
20191213053505 45 158 1.0 9.0 0.00 0.73 0.00 69 1022.2
20191213053005 45 126 1.0 9.0 0.00 0.73 0.00 69 1022.4
20191213052504 45 139 2.0 10.0 0.00 0.73 0.00 70 1022.7
20191213052005 45 104 1.0 15.0 0.00 0.73 0.00 70 1022.9
20191213051505 45 161 4.0 15.0 0.00 0.73 0.00 70 1022.9
20191213051004 45 141 4.0 14.0 0.00 0.73 0.00 70 1022.5
20191213050504 45 150 4.0 20.0 0.00 0.73 0.00 70 1022.5
20191213050005 45 124 7.0 20.0 0.00 0.73 0.00 71 1022.1
20191213045504 45 117 10.0 20.0 0.00 0.73 0.00 70 1021.9
20191213045004 45 123 8.0 17.0 0.00 0.73 0.00 70 1022.3
20191213044514 45 120 7.0 17.0 0.00 0.73 0.00 69 1022.4
20191213044004 46 116 3.0 10.0 0.00 0.73 0.00 68 1022.8
20191213043504 46 118 4.0 14.0 0.00 0.73 0.00 67 1023.0
20191213043006 46 144 6.0 14.0 0.00 0.73 0.00 67 1023.1
20191213042506 46 122 3.0 15.0 0.00 0.73 0.00 66 1023.2
20191213042005 46 144 5.0 15.0 0.00 0.73 0.00 66 1023.3
20191213041505 46 128 6.0 11.0 0.00 0.73 0.00 66 1023.2
20191213041005 46 125 3.0 13.0 0.00 0.73 0.00 66 1023.5
20191213040510 46 122 5.0 13.0 0.00 0.73 0.00 65 1023.6
20191213040007 46 140 7.0 12.0 0.00 0.73 0.00 65 1023.6
20191213035504 46 123 6.0 12.0 0.00 0.73 0.00 64 1023.7
20191213035005 46 143 4.0 10.0 0.00 0.73 0.00 64 1023.8
20191213034504 46 115 3.0 10.0 0.00 0.73 0.00 64 1023.9
20191213034004 46 140 3.0 11.0 0.00 0.73 0.00 64 1023.9
20191213033504 46 149 3.0 12.0 0.00 0.73 0.00 63 1023.9
20191213033004 46 148 5.0 12.0 0.00 0.73 0.00 63 1023.8
20191213032504 47 147 4.0 10.0 0.00 0.73 0.00 63 1023.8
20191213032005 47 138 2.0 12.0 0.00 0.73 0.00 62 1023.9
20191213031504 47 140 5.0 12.0 0.00 0.73 0.00 62 1024.0
20191213031005 47 143 5.0 12.0 0.00 0.73 0.00 62 1023.9
20191213030504 47 156 4.0 14.0 0.00 0.73 0.00 62 1023.9
20191213030005 47 146 5.0 14.0 0.00 0.73 0.00 61 1023.9
20191213025505 48 141 5.0 13.0 0.00 0.73 0.00 60 1023.9
20191213025005 48 147 5.0 13.0 0.00 0.73 0.00 60 1023.9
20191213024504 48 143 3.0 12.0 0.00 0.73 0.00 59 1023.8
20191213024004 48 135 6.0 13.0 0.00 0.73 0.00 58 1023.8
20191213023504 48 144 5.0 13.0 0.00 0.73 0.00 57 1023.7
20191213023005 48 140 6.0 13.0 0.00 0.73 0.00 56 1023.7
20191213022505 48 126 5.0 13.0 0.00 0.73 0.00 53 1023.7
20191213022005 48 144 3.0 14.0 0.00 0.73 0.00 52 1023.8
20191213021505 49 140 5.0 14.0 0.00 0.73 0.00 52 1023.5
20191213021004 49 132 4.0 16.0 0.00 0.73 0.00 51 1023.6
20191213020504 49 125 3.0 16.0 0.00 0.73 0.00 50 1023.6
20191213020005 49 135 4.0 14.0 0.00 0.73 0.00 49 1023.6
20191213015505 49 141 8.0 14.0 0.00 0.73 0.00 49 1023.7
20191213015004 49 131 2.0 14.0 0.00 0.73 0.00 48 1023.7
20191213014504 49 138 4.0 14.0 0.00 0.73 0.00 47 1023.8
20191213014004 49 122 4.0 12.0 0.00 0.73 0.00 47 1023.8
20191213013504 49 129 6.0 11.0 0.00 0.73 0.00 46 1023.9
20191213013008 50 153 7.0 14.0 0.00 0.73 0.00 46 1023.8
20191213012504 50 143 3.0 16.0 0.00 0.73 0.00 44 1023.7
20191213012005 50 137 8.0 16.0 0.00 0.73 0.00 44 1023.6
20191213011504 50 123 6.0 11.0 0.00 0.73 0.00 44 1023.6
20191213011005 50 124 6.0 14.0 0.00 0.73 0.00 43 1023.5
20191213010504 50 152 4.0 14.0 0.00 0.73 0.00 42 1023.6
20191213010004 51 125 5.0 13.0 0.00 0.73 0.00 42 1023.5
20191213005504 50 138 1.0 10.0 0.00 0.73 0.00 42 1023.6
20191213005004 51 129 4.0 11.0 0.00 0.73 0.00 43 1023.6
20191213004504 51 146 3.0 11.0 0.00 0.73 0.00 43 1023.6
20191213004005 51 117 3.0 10.0 0.00 0.73 0.00 42 1023.6
20191213003504 51 127 0.0 8.0 0.00 0.73 0.00 43 1023.7
20191213003005 51 92 0.0 8.0 0.00 0.73 0.00 43 1023.8
20191213002510 51 150 2.0 10.0 0.00 0.73 0.00 42 1023.8
20191213002005 51 139 4.0 10.0 0.00 0.73 0.00 41 1023.8
20191213001504 51 134 1.0 11.0 0.00 0.73 0.00 42 1023.8
20191213001004 51 136 3.0 11.0 0.00 0.73 0.00 41 1023.8
20191213000504 51 127 0.0 8.0 0.00 0.73 0.00 42 1023.9
20191213000004 51 131 2.0 8.0 0.00 0.73 0.00 42 1024.1
20191212235505 51 105 0.0 7.0 0.00 0.73 0.00 42 1024.2
20191212235004 51 105 0.0 8.0 0.00 0.73 0.00 42 1024.2
20191212234504 51 147 2.0 8.0 0.00 0.73 0.00 42 1024.3
20191212234004 51 80 0.0 2.0 0.00 0.73 0.00 43 1024.3
20191212233504 51 80 0.0 4.0 0.00 0.73 0.00 44 1024.5
20191212233006 51 120 0.0 4.0 0.00 0.73 0.00 43 1024.4
20191212232504 51 151 0.0 7.0 0.00 0.73 0.00 42 1024.6
20191212232005 51 148 2.0 8.0 0.00 0.73 0.00 41 1024.7
20191212231504 51 169 2.0 8.0 0.00 0.73 0.00 42 1024.7
20191212231004 51 126 0.0 0.0 0.00 0.73 0.00 41 1024.8
20191212230504 51 126 0.0 0.0 0.00 0.73 0.00 41 1024.8
20191212230004 51 126 0.0 0.0 0.00 0.73 0.00 41 1024.7
20191212225503 51 126 0.0 0.0 0.00 0.73 0.00 41 1024.7
20191212225004 51 126 0.0 0.0 0.00 0.73 0.00 41 1024.7
20191212224505 51 126 0.0 0.0 0.00 0.73 0.00 40 1024.6
20191212224005 51 126 0.0 0.0 0.00 0.73 0.00 40 1024.6
20191212223504 51 126 0.0 4.0 0.00 0.73 0.00 40 1024.7
20191212223004 51 126 0.0 6.0 0.00 0.73 0.00 40 1024.7
20191212222505 52 171 0.0 6.0 0.00 0.73 0.00 40 1024.7
20191212222005 52 171 0.0 0.0 0.00 0.73 0.00 40 1024.8
20191212221504 52 171 0.0 3.0 0.00 0.73 0.00 39 1024.8
20191212221004 52 171 0.0 3.0 0.00 0.73 0.00 40 1024.8
20191212220504 52 171 0.0 6.0 0.00 0.73 0.00 39 1025.0
20191212220006 52 189 0.0 6.0 0.00 0.73 0.00 39 1024.8
20191212215503 52 108 0.0 8.0 0.00 0.73 0.00 39 1025.0
20191212215004 52 112 1.0 8.0 0.00 0.73 0.00 38 1025.1
20191212214504 52 129 0.0 1.0 0.00 0.73 0.00 38 1025.1
20191212214006 52 129 0.0 5.0 0.00 0.73 0.00 38 1025.2
20191212213504 52 110 1.0 5.0 0.00 0.73 0.00 37 1025.2
20191212213009 52 77 0.0 0.0 0.00 0.73 0.00 37 1025.3
20191212212504 52 77 0.0 3.0 0.00 0.73 0.00 37 1025.4
20191212211504 52 131 3.0 8.0 0.00 0.73 0.00 36 1025.5
20191212211004 52 101 0.0 6.0 0.00 0.73 0.00 37 1025.5
20191212210504 52 154 0.0 7.0 0.00 0.73 0.00 37 1025.6
20191212210005 52 102 1.0 10.0 0.00 0.73 0.00 37 1025.5
20191212205504 52 119 0.0 10.0 0.00 0.73 0.00 37 1025.6
20191212205004 52 123 0.0 10.0 0.00 0.73 0.00 35 1025.6
20191212204504 53 146 2.0 10.0 0.00 0.73 0.00 35 1025.7
20191212204004 53 129 4.0 10.0 0.00 0.73 0.00 35 1025.7
20191212203503 53 129 3.0 10.0 0.00 0.73 0.00 35 1025.6
20191212203004 53 118 1.0 12.0 0.00 0.73 0.00 35 1025.7
20191212202504 53 129 1.0 12.0 0.00 0.73 0.00 34 1025.8
20191212202004 54 114 3.0 12.0 0.00 0.73 0.00 34 1025.8
20191212201504 54 125 5.0 10.0 0.00 0.73 0.00 33 1025.9
20191212201004 54 140 0.0 10.0 0.00 0.73 0.00 35 1026.0
20191212200504 54 138 5.0 10.0 0.00 0.73 0.00 33 1026.0
20191212200005 54 140 5.0 10.0 0.00 0.73 0.00 34 1026.1
20191212195504 54 145 0.0 11.0 0.00 0.73 0.00 34 1026.1
20191212195004 53 128 5.0 11.0 0.00 0.73 0.00 33 1026.3
20191212194504 54 133 4.0 16.0 0.00 0.73 0.00 33 1026.3
20191212194005 54 145 4.0 16.0 0.00 0.73 0.00 32 1026.3
20191212193504 54 129 2.0 11.0 0.00 0.73 0.00 33 1026.4
20191212193004 54 99 0.0 14.0 0.00 0.73 0.00 33 1026.6
20191212192503 54 159 4.0 14.0 0.00 0.73 0.00 30 1026.6
20191212192004 54 150 4.0 10.0 0.00 0.73 0.00 31 1026.7
20191212191504 54 126 2.0 8.0 0.00 0.73 0.00 33 1026.8
20191212191004 54 156 0.0 11.0 0.00 0.73 0.00 33 1026.9
20191212190504 54 192 0.0 12.0 0.00 0.73 0.00 32 1027.0
20191212190004 54 76 2.0 12.0 0.00 0.73 0.00 32 1027.0
20191212185504 54 118 0.0 11.0 0.00 0.73 0.00 31 1027.1
20191212185004 54 136 4.0 16.0 0.00 0.73 0.00 30 1027.2
20191212184504 54 144 6.0 16.0 0.00 0.73 0.00 29 1027.2
20191212184007 54 121 5.0 12.0 0.00 0.73 0.00 30 1027.3
20191212183503 54 118 1.0 12.0 0.00 0.73 0.00 31 1027.3
20191212183004 54 119 4.0 12.0 0.00 0.73 0.00 30 1027.5
20191212182503 55 113 2.0 12.0 0.00 0.73 0.00 29 1027.6
20191212182004 55 143 2.0 13.0 0.00 0.73 0.00 30 1027.7
20191212181504 54 133 2.0 13.0 0.00 0.73 0.00 30 1027.8
20191212181004 55 141 5.0 11.0 0.00 0.73 0.00 30 1027.7
20191212180504 55 103 3.0 16.0 0.00 0.73 0.00 30 1027.9
20191212180003 55 133 7.0 16.0 0.00 0.73 0.00 30 1028.0
20191212175504 54 100 6.0 14.0 0.00 0.73 0.00 31 1028.1
20191212175004 54 121 3.0 15.0 0.00 0.73 0.00 33 1028.2
20191212174503 54 124 5.0 15.0 0.00 0.73 0.00 32 1028.3
20191212174004 54 124 4.0 13.0 0.00 0.73 0.00 34 1028.5
20191212173503 53 137 4.0 13.0 0.00 0.73 0.00 34 1028.5
20191212173004 53 135 5.0 13.0 0.00 0.73 0.00 36 1028.7
20191212172504 52 92 4.0 12.0 0.00 0.73 0.00 37 1028.7
20191212172004 52 69 1.0 12.0 0.00 0.73 0.00 37 1028.9
20191212171504 51 145 2.0 12.0 0.00 0.73 0.00 37 1029.0
20191212171004 51 102 2.0 10.0 0.00 0.73 0.00 37 1029.1
20191212170504 51 134 4.0 15.0 0.00 0.74 0.00 37 1029.3
20191212170004 51 116 6.0 15.0 0.00 0.74 0.00 36 1029.4
20191212165504 51 107 0.0 11.0 0.00 0.74 0.00 37 1029.7
20191212165003 51 92 3.0 14.0 0.00 0.75 0.00 38 1029.8
20191212164504 50 104 3.0 14.0 0.00 0.76 0.00 38 1030.0
20191212164004 50 155 2.0 16.0 0.00 0.76 0.00 38 1030.1
20191212163504 49 130 7.0 16.0 0.00 0.77 0.00 37 1030.1
20191212163003 49 113 6.0 15.0 0.00 0.78 0.00 38 1030.1
20191212162504 49 122 8.0 15.0 0.00 0.78 0.00 38 1030.3
20191212162004 49 124 7.0 15.0 0.00 0.79 0.00 38 1030.3
20191212161503 49 103 6.0 12.0 0.00 0.79 0.00 37 1030.4
20191212161004 48 126 3.0 13.0 0.00 0.80 0.00 39 1030.5
20191212160503 48 124 4.0 14.0 0.00 0.81 0.00 39 1030.6
20191212160005 48 99 4.0 16.0 0.00 0.82 0.00 39 1030.6
20191212155503 47 146 4.0 16.0 0.00 0.83 0.00 41 1030.7
20191212155004 47 105 6.0 12.0 0.00 0.84 0.00 41 1030.8
20191212154503 47 78 3.0 15.0 0.00 0.85 0.00 43 1030.8
20191212154003 46 106 7.0 15.0 0.00 0.86 0.00 41 1030.8
20191212153504 46 125 3.0 13.0 0.00 0.87 0.00 43 1030.8
20191212153003 45 103 5.0 14.0 0.00 0.87 0.00 44 1030.9
20191212152504 45 98 5.0 14.0 0.00 0.87 0.00 44 1031.0
20191212152003 44 77 5.0 14.0 0.00 0.88 0.00 46 1031.0
20191212151504 44 87 6.0 17.0 0.00 0.88 0.00 46 1031.0
20191212151003 44 115 3.0 17.0 0.00 0.88 0.00 49 1031.1
20191212150504 43 109 4.0 12.0 0.00 0.88 0.00 49 1031.1
20191212150003 43 72 1.0 12.0 0.00 0.88 0.00 49 1031.1
20191212145503 43 122 4.0 11.0 0.00 0.88 0.00 50 1031.2
20191212145004 42 114 6.0 11.0 0.00 0.88 0.00 49 1031.2
20191212144504 42 85 6.0 11.0 0.00 0.88 0.00 52 1031.2
20191212144003 41 70 4.0 11.0 0.00 0.88 0.00 52 1031.3
20191212143504 41 116 3.0 10.0 0.00 0.88 0.00 54 1031.3
20191212143004 41 93 2.0 10.0 0.00 0.88 0.00 54 1031.3
20191212142503 40 113 1.0 8.0 0.00 0.88 0.00 56 1031.3
20191212142005 40 57 2.0 7.0 0.00 0.88 0.00 56 1031.3
20191212141503 40 61 2.0 8.0 0.00 0.88 0.00 56 1031.3
20191212141004 39 104 0.0 9.0 0.00 0.88 0.00 58 1031.3
20191212140503 39 92 3.0 9.0 0.00 0.88 0.00 58 1031.3
20191212140004 39 116 0.0 10.0 0.00 0.88 0.00 60 1031.4
20191212135503 38 100 2.0 10.0 0.00 0.88 0.00 60 1031.4
20191212135003 38 61 0.0 9.0 0.00 0.88 0.00 61 1031.3
20191212134504 38 111 2.0 9.0 0.00 0.88 0.00 62 1031.3
20191212134004 37 53 0.0 9.0 0.00 0.88 0.00 63 1031.2
20191212133504 37 98 0.0 9.0 0.00 0.88 0.00 64 1031.2
20191212133030 36 99 2.0 8.0 0.00 0.88 0.00 65 1031.2
20191212132504 36 105 0.0 8.0 0.00 0.88 0.00 66 1031.2
20191212132003 36 74 0.0 8.0 0.00 0.88 0.00 66 1031.2
20191212131504 36 93 2.0 6.0 0.00 0.88 0.00 67 1031.2
20191212131005 36 99 0.0 5.0 0.00 0.88 0.00 67 1031.4
20191212130503 36 99 0.0 5.0 0.00 0.88 0.00 67 1031.4
20191212130006 36 126 0.0 4.0 0.00 0.88 0.00 68 1031.3
20191212125504 35 126 0.0 7.0 0.00 0.88 0.00 69 1031.4
20191212125004 35 125 1.0 7.0 0.00 0.88 0.00 69 1031.3
20191212124504 35 129 0.0 4.0 0.00 0.88 0.00 70 1031.3
20191212124003 35 129 0.0 7.0 0.00 0.88 0.00 70 1031.3
20191212123504 35 79 0.0 7.0 0.00 0.88 0.00 71 1031.3
20191212123004 35 72 1.0 8.0 0.00 0.88 0.00 73 1031.2
20191212122503 34 82 2.0 8.0 0.00 0.88 0.00 74 1031.3
20191212122004 34 61 0.0 8.0 0.00 0.88 0.00 75 1031.2
20191212121504 33 104 0.0 6.0 0.00 0.88 0.00 77 1031.2
20191212121003 33 80 0.0 5.0 0.00 0.88 0.00 78 1031.2
20191212120504 32 99 0.0 5.0 0.00 0.88 0.00 79 1031.1
20191212120003 32 84 0.0 0.0 0.00 0.88 0.00 79 1031.1
20191212115503 32 84 0.0 0.0 0.00 0.88 0.00 79 1031.2
20191212115004 32 84 0.0 5.0 0.00 0.88 0.00 80 1031.1
20191212114503 31 95 0.0 5.0 0.00 0.88 0.00 80 1031.1
20191212114003 31 87 0.0 5.0 0.00 0.88 0.00 80 1031.1
20191212113504 30 87 0.0 5.0 0.00 0.88 0.00 81 1031.1
20191212113004 30 66 0.0 5.0 0.00 0.88 0.00 81 1031.1
20191212112504 29 66 0.0 6.0 0.00 0.88 0.00 82 1031.1
20191212112003 28 76 1.0 6.0 0.00 0.88 0.00 81 1031.1
20191212111503 28 345 0.0 0.0 0.00 0.88 0.00 81 1031.2
20191212111004 28 345 0.0 0.0 0.00 0.88 0.00 81 1031.2
20191212110504 28 345 0.0 0.0 0.00 0.88 0.00 81 1031.3
20191212110003 28 345 0.0 0.0 0.00 0.88 0.00 81 1031.4
20191212105503 28 345 0.0 0.0 0.00 0.88 0.00 81 1031.4
20191212105003 28 345 0.0 0.0 0.00 0.88 0.00 81 1031.3
20191212104503 28 345 0.0 0.0 0.00 0.88 0.00 81 1031.3
20191212104003 28 345 0.0 0.0 0.00 0.88 0.00 81 1031.3
20191212103503 28 345 0.0 0.0 0.00 0.88 0.00 81 1031.3
20191212103003 28 345 0.0 0.0 0.00 0.88 0.00 81 1031.4
20191212102504 28 345 0.0 0.0 0.00 0.88 0.00 80 1031.4
20191212102003 28 345 0.0 0.0 0.00 0.88 0.00 80 1031.4
20191212101503 28 345 0.0 0.0 0.00 0.88 0.00 80 1031.3
20191212101004 29 345 0.0 0.0 0.00 0.88 0.00 80 1031.4
20191212100503 29 345 0.0 0.0 0.00 0.88 0.00 80 1031.4
20191212094503 29 345 0.0 0.0 0.00 0.88 0.00 80 1031.5
20191212094004 29 345 0.0 0.0 0.00 0.88 0.00 80 1031.6
20191212093503 29 345 0.0 0.0 0.00 0.88 0.00 80 1031.6
20191212093003 29 345 0.0 0.0 0.00 0.88 0.00 80 1031.5
20191212092503 29 345 0.0 0.0 0.00 0.88 0.00 80 1031.4
20191212092004 29 345 0.0 0.0 0.00 0.88 0.00 80 1031.5
20191212091503 29 345 0.0 0.0 0.00 0.88 0.00 80 1031.5
20191212091003 29 345 0.0 0.0 0.00 0.88 0.00 79 1031.4
20191212090503 29 345 0.0 0.0 0.00 0.88 0.00 79 1031.5
20191212090003 29 345 0.0 0.0 0.00 0.88 0.00 79 1031.6
20191212085503 29 345 0.0 0.0 0.00 0.88 0.00 79 1031.5
20191212085003 29 345 0.0 0.0 0.00 0.88 0.00 79 1031.6
20191212084503 29 345 0.0 0.0 0.00 0.88 0.00 79 1031.6
20191212084003 29 345 0.0 0.0 0.00 0.88 0.00 79 1031.6
20191212083503 29 345 0.0 0.0 0.00 0.88 0.00 79 1031.6
20191212083003 29 345 0.0 0.0 0.00 0.88 0.00 79 1031.6
20191212082503 29 345 0.0 0.0 0.00 0.88 0.00 79 1031.6
20191212082003 29 345 0.0 0.0 0.00 0.88 0.00 79 1031.6
20191212081504 29 345 0.0 0.0 0.00 0.88 0.00 79 1031.6
20191212081003 29 345 0.0 0.0 0.00 0.88 0.00 79 1031.6
20191212080503 30 345 0.0 0.0 0.00 0.88 0.00 79 1031.7
20191212080004 30 345 0.0 0.0 0.00 0.88 0.00 78 1031.7
20191212075503 30 345 0.0 0.0 0.00 0.88 0.00 78 1031.7
20191212075003 30 345 0.0 0.0 0.00 0.88 0.00 78 1031.7
20191212074503 30 345 0.0 0.0 0.00 0.88 0.00 78 1031.8
20191212074003 30 345 0.0 0.0 0.00 0.88 0.00 78 1031.7
20191212073503 30 345 0.0 0.0 0.00 0.88 0.00 78 1031.8